Regional Weather Roundup
Issued by NWS

Home | Current Version | Previous Version | Graphics & Text | Print | Product List | Glossary On
Versions: 1 2 3 4 5 6 7 8 9 10 11 12 13 14 15 16 17 18 19 20 21 22 23 24 25 26 27 28 29 30 31 32 33 34 35 36 37 38 39 40 41 42 43 44 45 46 47 48 49 50
000
ASUS43 KDTX 231201
RWRMI
MICHIGAN HOURLY REGIONAL WEATHER ROUNDUP
NATIONAL WEATHER SERVICE DETROIT/PONTIAC MI
800 AM EDT SUN APR 23 2017

NOTE: "FAIR" INDICATES FEW OR NO CLOUDS BELOW 12,000 FEET WITH NO
SIGNIFICANT WEATHER AND/OR OBSTRUCTION TO VISIBILITY.

MIZ047>049-052>055-059>063-066>070-074>076-081>083-231300-
SOUTHEAST LOWER MICHIGAN

CITY           SKY/WX    TMP DP  RH WIND       PRES   REMARKS
ADRIAN         SUNNY     38  36  92 CALM      30.16R
6HR MIN TEMP:  32; 6HR MAX TEMP:  39;

ALMA           SUNNY     41  35  79 CALM      30.12R
ANN ARBOR      SUNNY     37  37 100 CALM      30.15R
BAD AXE        SUNNY     42  33  71 SW6       30.10R
6HR MIN TEMP:  31; 6HR MAX TEMP:  42;

CARO           SUNNY     39  34  83 CALM      30.11R
DETROIT CITY   SUNNY     42  35  76 CALM      30.15R
6HR MIN TEMP:  35; 6HR MAX TEMP:  42;

DETROIT        SUNNY     41  37  86 S3        30.16R
6HR MIN TEMP:  36; 6HR MAX TEMP:  43;

FLINT          SUNNY     43  35  73 S6        30.13R
6HR MIN TEMP:  30; 6HR MAX TEMP:  43;

GROSSE ILE     SUNNY     40  34  79 CALM      30.15R
6HR MIN TEMP:  33; 6HR MAX TEMP:  42;

HILLSDALE      SUNNY     37  36  93 CALM      30.14R
HOWELL         MOSUNNY   41  36  81 CALM      30.13S
6HR MIN TEMP:  35; 6HR MAX TEMP:  41;


CITY           SKY/WX    TMP DP  RH WIND       PRES   REMARKS
JACKSON        LGT RAIN  39  36  89 CALM      30.15R
6HR MIN TEMP:  33; 6HR MAX TEMP:  40; 6HR PCP: TRACE;

LAMBERTVILLE   SUNNY     37  37  97 CALM      30.16R
6HR MIN TEMP:  32; 6HR MAX TEMP:  38;

LANSING        SUNNY     40  36  86 CALM      30.14R
6HR MIN TEMP:  35; 6HR MAX TEMP:  41;

LAPEER         FAIR      37  36  98 S10       30.13R WCI  30
6HR MIN TEMP:  31; 6HR MAX TEMP:  37;

MASON          SUNNY     39  35  86 CALM      30.14R
MONROE         SUNNY     38  35  90 CALM      30.15R
6HR MIN TEMP:  33; 6HR MAX TEMP:  38;

PONTIAC        MOSUNNY   41  37  86 W3        30.13R
6HR MIN TEMP:  34; 6HR MAX TEMP:  41;

PORT HOPE        N/A     46  31  55 SW8       30.06R
6HR MIN TEMP:  38; 6HR MAX TEMP:  46;

PORT HURON     SUNNY     34  32  93 CALM      30.14R
TRI CITIES     SUNNY     42  35  76 SW7       30.11R
6HR MIN TEMP:  40; 6HR MAX TEMP:  47;

MIDLAND        FAIR      38  36  94 CALM      30.10R
6HR MIN TEMP:  35; 6HR MAX TEMP:  40;

TROY           SUNNY     44  32  62 CALM      30.16R
SAGINAW HB     SUNNY     43  32  65 SW7       30.11R
$$
MIZ043>046-050>051-056>058-064>065-071>073-077>080-231300-
SOUTHWEST LOWER MICHIGAN

CITY           SKY/WX    TMP DP  RH WIND       PRES   REMARKS
BATTLE CREEK   SUNNY     38  34  85 CALM      30.14R
6HR MIN TEMP:  34; 6HR MAX TEMP:  44;

BENTON HARBOR  SUNNY     34  28  79 E5        30.14S WCI  30
6HR MIN TEMP:  29; 6HR MAX TEMP:  35;

BIG RAPIDS     SUNNY     33  32  93 CALM      30.10S
6HR MIN TEMP:  31; 6HR MAX TEMP:  37;

COLDWATER      SUNNY     36  36 100 CALM      30.15R
6HR MIN TEMP:  34; 6HR MAX TEMP:  41;

FREMONT        FAIR      34  31  87 CALM      30.12R
HOLLAND        SUNNY     40  34  79 CALM      30.14R
6HR MIN TEMP:  32; 6HR MAX TEMP:  40;

GRAND RAPIDS   MOSUNNY   38  36  92 S5        30.13R WCI  34
6HR MIN TEMP:  35; 6HR MAX TEMP:  41;

IONIA          FAIR      40  35  82 SW6       30.12R
6HR MIN TEMP:  37; 6HR MAX TEMP:  44;

KALAMAZOO      SUNNY     36  31  82 CALM      30.14R
6HR MIN TEMP:  34; 6HR MAX TEMP:  42;

LUDINGTON      SUNNY     47  32  56 SW8       30.09S
6HR MIN TEMP:  31; 6HR MAX TEMP:  47;

MARSHALL       SUNNY     36  35  95 CALM      30.14S
6HR MIN TEMP:  31; 6HR MAX TEMP:  38;

MOUNT PLEASANT SUNNY     42  30  62 SW5       30.10R
6HR MIN TEMP:  37; 6HR MAX TEMP:  46;

MUSKEGON       SUNNY     37  33  85 CALM      30.14R
6HR MIN TEMP:  32; 6HR MAX TEMP:  39;

SOUTH HAVEN    SUNNY     33  31  92 CALM      30.14S
$$
MIZ016>042-231300-
NORTHERN LOWER MICHIGAN

CITY           SKY/WX    TMP DP  RH WIND       PRES   REMARKS
ALPENA         MOSUNNY   49  30  48 W6        30.03R
6HR MIN TEMP:  34; 6HR MAX TEMP:  49;

BEAVER ISLAND  MOSUNNY   40  37  91 N5        30.08R
6HR MIN TEMP:  38; 6HR MAX TEMP:  48;

BELLAIRE       CLOUDY    36  32  86 CALM      30.07R
6HR MIN TEMP:  31; 6HR MAX TEMP:  36;

CADILLAC       SUNNY     35  31  85 CALM      30.08R
CHARLEVOIX     CLOUDY    42  35  77 W8        30.10R
6HR MIN TEMP:  41; 6HR MAX TEMP:  48;

FRANKFORT      SUNNY     48  32  54 SW5       30.08R
GAYLORD        SUNNY     45  24  43 W8        30.04R
6HR MIN TEMP:  40; 6HR MAX TEMP:  46;

GRAYLING       SUNNY     41  28  59 W7        30.06R
6HR MIN TEMP:  25; 6HR MAX TEMP:  41;

HARBOR SPRINGS CLOUDY    41  34  75 CALM      30.07R
HOUGHTON LAKE  SUNNY     47  30  51 W7        30.08R
6HR MIN TEMP:  34; 6HR MAX TEMP:  47;

OSCODA         SUNNY     41  32  71 SW8       30.05R
6HR MIN TEMP:  32; 6HR MAX TEMP:  41;

PELLSTON       CLOUDY    44  33  65 NW7       30.07R
6HR MIN TEMP:  36; 6HR MAX TEMP:  51;

ROGERS CITY    MOSUNNY   47  27  46 W8        30.04R
TRAVERSE CITY  MOSUNNY   48  26  42 SW6       30.06R
6HR MIN TEMP:  45; 6HR MAX TEMP:  48;

$$
MIZ007>008-015-231300-
EASTERN UPPER MICHIGAN

CITY           SKY/WX    TMP DP  RH WIND       PRES   REMARKS
KINROSS        CLOUDY    40  38  93 NW16G22   30.04R WCI  31
6HR MIN TEMP:  37; 6HR MAX TEMP:  42;

MACKINAC ISLAN MOSUNNY   39  36  87 NW8       30.05R WCI  34
NEWBERRY       CLOUDY    36  34  91 NW10G21   30.08R WCI  29
6HR MIN TEMP:  36; 6HR MAX TEMP:  40;

S. S. MARIE    CLOUDY    41  37  86 NW16G25   30.04R
6HR MIN TEMP:  40; 6HR MAX TEMP:  44;

MUNISING         N/A     36  34  92 N18       30.13R WCI  26
6HR MIN TEMP:  36; 6HR MAX TEMP:  44; 6HR PCP:  0.01;

$$
MIZ004>006-011>014-085-231300-
CENTRAL UPPER MICHIGAN

CITY           SKY/WX    TMP DP  RH WIND       PRES   REMARKS
MANISTIQUE     CLOUDY    37  35  91 N20G25    30.09R WCI  27
6HR MIN TEMP:  36; 6HR MAX TEMP:  44;

ESCANABA       CLOUDY    38  33  82 N13G21    30.12R WCI  30
6HR MIN TEMP:  37; 6HR MAX TEMP:  46;

MENOMINEE      MOSUNNY   43  39  86 E15       30.09R FOG
6HR MIN TEMP:  42; 6HR MAX TEMP:  50;

SAWYER-GWINN   CLOUDY    32  30  93 N16G25    30.12R WCI  21
$$
MIZ001>003-009>011-084-231300-
WESTERN UPPER MICHIGAN

CITY           SKY/WX    TMP DP  RH WIND       PRES   REMARKS
IRON MOUNTAIN  CLOUDY    39  33  79 NE13      30.09R WCI  31
6HR MIN TEMP:  37; 6HR MAX TEMP:  53;

HOUGHTON       LGT SNOW  31  27  85 NE9       30.16R VSB 3/4 WCI  23
6HR MIN TEMP:  31; 6HR MAX TEMP:  45; 6HR PCP:  0.07;

COPPER HARBOR    N/A     32  27  81 NE20      30.19R WCI  20
6HR MIN TEMP:  31; 6HR MAX TEMP:  37; 6HR PCP:  0.05;

IRONWOOD       LGT SNOW  34  33  96 NE6       30.16R FOG     WCI  29
6HR MIN TEMP:  34; 6HR MAX TEMP:  46; 6HR PCP:  0.03;

$$

ABBREVIATIONS USED IN REMARKS
   TC - TEMPERATURE IN CELSIUS
  WCI - WIND CHILL INDEX
   HX - HEAT INDEX
  VSB - VISIBILITY




USA.gov is the U.S. government's official web portal to all federal, state and local government web resources and services.